Fremont, MI

10:21 PM EST on December 11, 2019 (GMT -0500)
Fremont

Weather History for KFFX - October, 2019

Change the Weather History Date:

Thursday, October 17, 2019

  Actual Average (KMKG) Record (KMKG)
Temperature  
Mean Temperature 44 °F -  
Max Temperature 51 °F 58 °F 78 °F (1968)
Min Temperature 38 °F 40 °F 25 °F (1977)
Degree Days  
Heating Degree Days 20    
Moisture  
Dew Point 36 °F    
Average Humidity 74    
Maximum Humidity 99    
Minimum Humidity 46    
Precipitation  
Precipitation 0.00 in - - ()
Sea Level Pressure  
Sea Level Pressure 29.96 in    
Wind  
Wind Speed 5 mph ()    
Max Wind Speed 14 mph    
Max Gust Speed 21 mph    
Visibility 10.0 miles    
Events      
Averages and records for this station are not official NWS values.
T = Trace of Precipitation, MM = Missing Value Source: Averaged Metar Reports

Daily Weather History Graph

Daily Weather History Graph

Search for Another Location

Airport or City:

Astronomy

Oct. 17, 2019 Rise Set
Actual Time 8:00 AM EDT 6:57 PM EDT
Civil Twilight 7:31 AM EDT 7:26 PM EDT
Nautical Twilight 6:58 AM EDT 7:59 PM EDT
Astronomical Twilight 6:24 AM EDT 8:32 PM EDT
Moon 9:23 PM EDT (10/17) 11:36 AM EDT (10/17)
Length of Visible Light 11h 55m
Length of Day
10h 57m
Waning Gibbous, 87% of the Moon is Illuminated
Oct 17
Waning Gibbous
Oct 21
Last Quarter
Oct 27
New
Nov 4
First Quarter
Nov 12
Full

Hourly Weather History & Observations

Time (EDT) Temp. Windchill Dew Point Humidity Pressure Visibility Wind Dir Wind Speed Gust Speed Precip Events Conditions
12:15 AM 42.8 °F 38.6 °F 37.4 °F 81% 29.92 in 10.0 mi NNW 6.9 mph - N/A   Scattered Clouds
12:35 AM 41.5 °F 37.8 °F 38.3 °F 88% 29.92 in 10.0 mi NNW 5.8 mph - N/A   Clear
12:36 AM 41.4 °F 37.6 °F 38.3 °F 89% 29.92 in 10.0 mi NNW 5.8 mph - N/A   Clear
12:59 AM 40.1 °F 38.0 °F 37.9 °F 92% 29.92 in 10.0 mi NW 3.5 mph - N/A   Clear
1:17 AM 39.0 °F 35.7 °F 37.6 °F 95% 29.92 in 10.0 mi NW 4.6 mph - N/A   Clear
1:35 AM 39.2 °F 37.0 °F 37.8 °F 95% 29.92 in 10.0 mi NW 3.5 mph - N/A   Scattered Clouds
1:36 AM 39.2 °F 37.0 °F 37.8 °F 95% 29.92 in 10.0 mi NW 3.5 mph - N/A   Scattered Clouds
1:55 AM 38.8 °F 35.4 °F 37.6 °F 95% 29.92 in 10.0 mi North 4.6 mph - N/A   Scattered Clouds
2:15 AM 39.4 °F 36.1 °F 38.5 °F 97% 29.92 in 10.0 mi WNW 4.6 mph - N/A   Scattered Clouds
2:38 AM 39.2 °F 37.0 °F 37.8 °F 95% 29.92 in 10.0 mi NW 3.5 mph - N/A   Scattered Clouds
2:56 AM 38.7 °F - 37.8 °F 97% 29.91 in 10.0 mi Calm Calm - N/A   Scattered Clouds
3:15 AM 38.5 °F - 37.4 °F 96% 29.92 in 10.0 mi Calm Calm - N/A   Scattered Clouds
3:16 AM 38.7 °F - 37.6 °F 96% 29.92 in 10.0 mi Calm Calm - N/A   Scattered Clouds
3:35 AM 38.5 °F - 37.4 °F 96% 29.92 in 10.0 mi Calm Calm - N/A   Clear
3:36 AM 38.3 °F - 37.4 °F 97% 29.92 in 10.0 mi Calm Calm - N/A   Clear
3:59 AM 38.5 °F - 37.6 °F 97% 29.92 in 10.0 mi Calm Calm - N/A   Mostly Cloudy
4:17 AM 39.0 °F - 37.9 °F 96% 29.91 in 10.0 mi Calm Calm - N/A   Overcast
4:35 AM 39.0 °F - 38.3 °F 97% 29.91 in 10.0 mi Calm Calm - N/A   Overcast
4:55 AM 39.6 °F 37.4 °F 39.2 °F 99% 29.92 in 10.0 mi SW 3.5 mph - N/A   Overcast
4:56 AM 39.6 °F 37.4 °F 39.2 °F 99% 29.92 in 10.0 mi SW 3.5 mph - N/A   Overcast
5:15 AM 41.0 °F - 39.7 °F 95% 29.92 in 10.0 mi Calm Calm - N/A   Overcast
5:38 AM 43.5 °F 39.4 °F 40.6 °F 90% 29.92 in 10.0 mi NW 6.9 mph - N/A   Overcast
5:56 AM 43.7 °F 41.1 °F 40.5 °F 88% 29.92 in 10.0 mi NW 4.6 mph - N/A   Overcast
6:15 AM 43.9 °F 40.5 °F 40.5 °F 88% 29.92 in 10.0 mi NW 5.8 mph - N/A   Overcast
6:16 AM 43.9 °F 39.9 °F 40.5 °F 88% 29.92 in 10.0 mi NW 6.9 mph - N/A   Overcast
6:35 AM 43.9 °F 40.5 °F 40.5 °F 88% 29.92 in 10.0 mi NNW 5.8 mph - N/A   Overcast
6:36 AM 43.9 °F 40.5 °F 40.5 °F 88% 29.92 in 10.0 mi NNW 5.8 mph - N/A   Overcast
6:59 AM 44.1 °F 40.1 °F 40.5 °F 87% 29.92 in 10.0 mi NW 6.9 mph - N/A   Overcast
7:17 AM 44.1 °F 40.1 °F 40.3 °F 87% 29.93 in 10.0 mi WNW 6.9 mph - N/A   Overcast
7:35 AM 44.2 °F 41.0 °F 39.7 °F 84% 29.93 in 10.0 mi WNW 5.8 mph - N/A   Overcast
7:55 AM 44.1 °F 40.1 °F 40.3 °F 87% 29.94 in 10.0 mi NW 6.9 mph - N/A   Overcast
7:56 AM 44.1 °F 40.1 °F 40.1 °F 86% 29.94 in 10.0 mi WNW 6.9 mph - N/A   Overcast
8:38 AM 44.2 °F 41.0 °F 40.1 °F 85% 29.95 in 10.0 mi NW 5.8 mph - N/A   Overcast
8:56 AM 44.2 °F 41.8 °F 40.1 °F 85% 29.95 in 10.0 mi NW 4.6 mph - N/A   Overcast
9:15 AM 44.8 °F 41.0 °F 38.8 °F 80% 29.95 in 10.0 mi NW 6.9 mph - N/A   Overcast
9:35 AM 45.1 °F 42.8 °F 38.7 °F 78% 29.96 in 10.0 mi NW 4.6 mph - N/A   Overcast
9:59 AM 45.7 °F 42.7 °F 36.5 °F 70% 29.97 in 10.0 mi NW 5.8 mph - N/A   Overcast
10:17 AM 46.4 °F 44.3 °F 37.6 °F 71% 29.98 in 10.0 mi North 4.6 mph - N/A   Overcast
10:35 AM 46.8 °F - 36.7 °F 68% 29.98 in 10.0 mi NNW 8.1 mph - N/A   Overcast
10:36 AM 46.8 °F - 36.5 °F 67% 29.98 in 10.0 mi NNW 6.9 mph - N/A   Overcast
10:55 AM 46.9 °F - 35.2 °F 64% 29.98 in 10.0 mi NW 11.5 mph - N/A   Overcast
11:15 AM 46.8 °F - 34.0 °F 61% 29.98 in 10.0 mi NNW 12.7 mph 16.1 mph N/A   Overcast
11:38 AM 47.3 °F - 33.3 °F 58% 29.98 in 10.0 mi NNW 10.4 mph - N/A   Overcast
11:56 AM 48.2 °F - 33.8 °F 58% 29.98 in 10.0 mi NW 13.8 mph - N/A   Mostly Cloudy
12:15 PM 48.7 °F - 34.7 °F 58% 29.98 in 10.0 mi NNW 11.5 mph - N/A   Mostly Cloudy
12:16 PM 48.9 °F - 34.7 °F 58% 29.98 in 10.0 mi NNW 13.8 mph - N/A   Mostly Cloudy
12:35 PM 49.1 °F - 33.6 °F 55% 29.98 in 10.0 mi NW 11.5 mph - N/A   Mostly Cloudy
12:36 PM 49.1 °F - 33.6 °F 55% 29.98 in 10.0 mi NW 11.5 mph - N/A   Mostly Cloudy
12:55 PM 49.6 °F - 34.0 °F 55% 29.98 in 10.0 mi NW 11.5 mph - N/A   Mostly Cloudy
1:18 PM 49.5 °F - 33.1 °F 53% 29.97 in 10.0 mi NNW 13.8 mph - N/A   Mostly Cloudy
1:36 PM 50.0 °F - 34.2 °F 55% 29.97 in 10.0 mi NW 11.5 mph - N/A   Mostly Cloudy
1:55 PM 49.6 °F - 33.6 °F 54% 29.97 in 10.0 mi NW 11.5 mph 16.1 mph N/A   Mostly Cloudy
1:56 PM 49.6 °F - 33.4 °F 54% 29.97 in 10.0 mi NNW 12.7 mph 16.1 mph N/A   Mostly Cloudy
2:15 PM 50.7 °F - 33.4 °F 52% 29.96 in 10.0 mi NW 12.7 mph - N/A   Overcast
2:39 PM 51.8 °F - 31.6 °F 46% 29.96 in 10.0 mi NNW 9.2 mph 16.1 mph N/A   Mostly Cloudy
2:57 PM 51.6 °F - 32.5 °F 48% 29.95 in 10.0 mi NNW 12.7 mph - N/A   Overcast
3:15 PM 50.2 °F - 32.2 °F 50% 29.95 in 10.0 mi NNW 10.4 mph - N/A   Overcast
3:16 PM 50.2 °F - 32.0 °F 50% 29.95 in 10.0 mi NNW 9.2 mph - N/A   Overcast
3:35 PM 51.4 °F - 32.7 °F 49% 29.95 in 10.0 mi NW 5.8 mph - N/A   Mostly Cloudy
3:36 PM 51.8 °F - 32.9 °F 49% 29.95 in 10.0 mi NW 6.9 mph - N/A   Mostly Cloudy
3:55 PM 50.2 °F - 33.3 °F 52% 29.95 in 10.0 mi NW 12.7 mph 17.3 mph N/A   Overcast
4:00 PM 50.2 °F - 33.4 °F 53% 29.96 in 10.0 mi NNW 12.7 mph 18.4 mph N/A   Overcast
4:18 PM 51.1 °F - 32.9 °F 50% 29.96 in 10.0 mi NW 10.4 mph - N/A   Overcast
4:36 PM 50.0 °F - 33.1 °F 52% 29.97 in 10.0 mi NW 12.7 mph 20.7 mph N/A   Overcast
4:55 PM 50.2 °F - 33.1 °F 52% 29.97 in 10.0 mi WNW 12.7 mph 17.3 mph N/A   Overcast
4:56 PM 50.0 °F - 32.9 °F 52% 29.97 in 10.0 mi WNW 13.8 mph 17.3 mph N/A   Overcast
5:15 PM 48.9 °F - 32.9 °F 54% 29.98 in 10.0 mi NW 11.5 mph - N/A   Overcast
5:39 PM 48.4 °F - 32.0 °F 53% 29.98 in 10.0 mi NW 12.7 mph 17.3 mph N/A   Overcast
5:57 PM 48.0 °F - 33.1 °F 56% 29.98 in 10.0 mi NNW 11.5 mph - N/A   Overcast
6:15 PM 47.7 °F - 33.1 °F 57% 29.98 in 10.0 mi NNW 8.1 mph - N/A   Overcast
6:16 PM 47.7 °F - 33.1 °F 57% 29.98 in 10.0 mi NNW 9.2 mph - N/A   Overcast
6:35 PM 47.3 °F - 32.7 °F 57% 29.99 in 10.0 mi NW 8.1 mph - N/A   Overcast
6:36 PM 47.3 °F - 32.7 °F 57% 29.99 in 10.0 mi NW 6.9 mph - N/A   Overcast
6:55 PM 46.9 °F - 33.4 °F 59% 30.00 in 10.0 mi NW 10.4 mph - N/A   Overcast
7:18 PM 46.6 °F - 34.2 °F 62% 30.00 in 10.0 mi NW 4.6 mph - N/A   Overcast
7:36 PM 46.4 °F 43.5 °F 34.7 °F 64% 30.00 in 10.0 mi NW 5.8 mph - N/A   Overcast
7:55 PM 46.0 °F 44.8 °F 34.9 °F 65% 30.00 in 10.0 mi NNW 3.5 mph - N/A   Overcast
7:56 PM 46.0 °F 44.8 °F 34.9 °F 65% 30.00 in 10.0 mi NNW 3.5 mph - N/A   Overcast
8:15 PM 45.9 °F 42.9 °F 33.8 °F 63% 30.01 in 10.0 mi NNW 5.8 mph - N/A   Overcast
8:16 PM 45.9 °F 42.9 °F 33.8 °F 63% 30.01 in 10.0 mi NNW 5.8 mph - N/A   Overcast
8:39 PM 45.5 °F - 33.8 °F 64% 30.01 in 10.0 mi Calm Calm - N/A   Overcast
8:57 PM 45.5 °F 44.2 °F 32.9 °F 61% 30.02 in 10.0 mi North 3.5 mph - N/A   Overcast
9:15 PM 44.2 °F - 32.2 °F 63% 30.02 in 10.0 mi Calm Calm - N/A   Mostly Cloudy
9:16 PM 44.2 °F - 32.5 °F 63% 30.02 in 10.0 mi Calm Calm - N/A   Mostly Cloudy
9:35 PM 41.4 °F - 36.1 °F 82% 30.03 in 10.0 mi Calm Calm - N/A   Scattered Clouds
9:36 PM 41.0 °F 39.0 °F 36.1 °F 83% 30.03 in 10.0 mi WNW 3.5 mph - N/A   Scattered Clouds
9:55 PM 41.0 °F - 37.6 °F 88% 30.03 in 10.0 mi Calm Calm - N/A   Scattered Clouds
10:00 PM 41.4 °F - 37.8 °F 87% 30.03 in 10.0 mi Calm Calm - N/A   Mostly Cloudy
10:18 PM 42.1 °F - 38.8 °F 88% 30.02 in 10.0 mi Calm Calm - N/A   Overcast
10:36 PM 42.4 °F - 40.3 °F 92% 30.03 in 10.0 mi Calm Calm - N/A   Overcast
10:55 PM 42.8 °F - 39.7 °F 89% 30.03 in 10.0 mi Calm Calm - N/A   Overcast
11:15 PM 40.8 °F - 39.2 °F 94% 30.03 in 10.0 mi Calm Calm - N/A   Scattered Clouds
11:16 PM 40.5 °F - 39.2 °F 95% 30.03 in 10.0 mi Calm Calm - N/A   Scattered Clouds
11:39 PM 38.3 °F - 37.4 °F 97% 30.03 in 10.0 mi Calm Calm - N/A   Scattered Clouds
11:57 PM 38.5 °F - 37.8 °F 97% 30.03 in 10.0 mi Calm Calm - N/A   Scattered Clouds